Time,TemperatureF,DewpointF,PressureIn,WindDirection,WindDirectionDegrees,WindSpeedMPH,WindSpeedGustMPH,Humidity,HourlyPrecipIn,Conditions,Clouds,dailyrainin,SoftwareType,DateUTC
2013-01-15 00:00:00,36.3,34.7,30.28,East,82,0.0,0.0,94,0.06,,,0.00,Wunderground v.1.15,2013-01-15 05:00:00,
2013-01-15 00:05:00,36.3,34.7,30.28,East,82,0.0,0.0,94,0.04,,,0.00,Wunderground v.1.15,2013-01-15 05:05:00,
2013-01-15 00:10:00,36.3,34.7,30.28,East,82,0.0,0.0,94,0.04,,,0.01,Wunderground v.1.15,2013-01-15 05:10:00,
2013-01-15 00:20:00,36.2,34.6,30.27,East,82,0.0,0.0,94,0.04,,,0.01,Wunderground v.1.15,2013-01-15 05:20:00,
2013-01-15 00:25:00,36.2,34.6,30.27,East,82,0.0,0.0,94,0.04,,,0.02,Wunderground v.1.15,2013-01-15 05:25:00,
2013-01-15 08:00:00,35.6,34.3,30.34,North,8,0.0,0.0,95,0.00,,,0.05,Wunderground v.1.15,2013-01-15 13:00:00,
2013-01-15 08:10:00,35.6,34.3,30.34,North,6,0.0,0.0,95,0.00,,,0.05,Wunderground v.1.15,2013-01-15 13:10:00,
2013-01-15 08:20:00,35.6,34.3,30.34,North,8,0.0,0.0,95,0.00,,,0.05,Wunderground v.1.15,2013-01-15 13:20:00,
2013-01-15 08:30:00,35.7,34.4,30.35,North,7,0.0,0.0,95,0.00,,,0.05,Wunderground v.1.15,2013-01-15 13:30:00,
2013-01-15 08:35:00,35.7,34.4,30.35,North,7,0.0,0.0,95,0.00,,,0.05,Wunderground v.1.15,2013-01-15 13:35:00,
2013-01-15 08:40:00,35.7,34.4,30.35,North,6,0.0,0.0,95,0.00,,,0.05,Wunderground v.1.15,2013-01-15 13:40:00,
2013-01-15 08:50:00,35.8,34.2,30.36,North,6,0.0,0.0,94,0.00,,,0.05,Wunderground v.1.15,2013-01-15 13:50:00,
2013-01-15 08:55:00,35.8,34.2,30.36,North,8,0.0,0.0,94,0.00,,,0.05,Wunderground v.1.15,2013-01-15 13:55:00,
2013-01-15 09:00:00,35.8,34.2,30.37,North,8,0.0,0.0,94,0.00,,,0.05,Wunderground v.1.15,2013-01-15 14:00:00,
2013-01-15 09:10:00,36.0,34.4,30.37,North,8,0.0,0.0,94,0.00,,,0.05,Wunderground v.1.15,2013-01-15 14:10:00,
2013-01-15 09:15:00,36.1,34.5,30.37,North,7,0.0,0.0,94,0.00,,,0.05,Wunderground v.1.15,2013-01-15 14:15:00,
2013-01-15 09:20:00,36.1,34.5,30.37,North,6,0.0,0.0,94,0.00,,,0.05,Wunderground v.1.15,2013-01-15 14:20:00,
2013-01-15 09:30:00,36.2,34.4,30.37,North,6,0.0,0.0,93,0.00,,,0.05,Wunderground v.1.15,2013-01-15 14:30:00,
2013-01-15 09:35:00,36.3,34.5,30.37,North,8,0.0,0.0,93,0.00,,,0.05,Wunderground v.1.15,2013-01-15 14:35:00,
2013-01-15 09:45:00,36.3,34.2,30.37,NE,56,0.0,0.0,92,0.00,,,0.05,Wunderground v.1.15,2013-01-15 14:45:00,
2013-01-15 09:50:00,36.3,34.2,30.37,NE,55,0.0,0.0,92,0.00,,,0.05,Wunderground v.1.15,2013-01-15 14:50:00,
2013-01-15 10:00:00,36.3,33.9,30.37,NE,55,0.0,0.0,91,0.00,,,0.05,Wunderground v.1.15,2013-01-15 15:00:00,
2013-01-15 10:10:00,36.4,34.0,30.37,SE,146,0.0,0.0,91,0.00,,,0.05,Wunderground v.1.15,2013-01-15 15:10:00,
2013-01-15 10:15:00,36.5,34.1,30.37,SSE,147,0.0,0.0,91,0.00,,,0.05,Wunderground v.1.15,2013-01-15 15:15:00,
2013-01-15 10:20:00,36.5,33.8,30.37,SE,146,0.0,0.0,90,0.00,,,0.05,Wunderground v.1.15,2013-01-15 15:20:00,
2013-01-15 10:30:00,36.6,33.9,30.37,SE,125,0.0,0.0,90,0.00,,,0.05,Wunderground v.1.15,2013-01-15 15:30:00,
2013-01-15 10:35:00,36.5,33.3,30.37,NE,54,0.0,0.0,88,0.00,,,0.05,Wunderground v.1.15,2013-01-15 15:35:00,
2013-01-15 10:45:00,36.6,33.4,30.36,NE,54,0.0,1.0,88,0.00,,,0.05,Wunderground v.1.15,2013-01-15 15:45:00,
2013-01-15 10:50:00,36.7,33.8,30.37,NE,53,0.0,0.0,89,0.00,,,0.05,Wunderground v.1.15,2013-01-15 15:50:00,
2013-01-15 12:05:00,37.1,32.7,30.33,NNW,347,0.0,1.0,84,0.00,,,0.05,Wunderground v.1.15,2013-01-15 17:05:00,
2013-01-15 12:10:00,37.1,32.7,30.32,SE,139,0.0,0.0,84,0.00,,,0.05,Wunderground v.1.15,2013-01-15 17:10:00,
2013-01-15 12:15:00,37.3,32.6,30.32,ESE,102,0.0,1.0,83,0.00,,,0.05,Wunderground v.1.15,2013-01-15 17:15:00,
2013-01-15 12:25:00,37.4,32.7,30.31,ESE,113,0.0,0.0,83,0.00,,,0.05,Wunderground v.1.15,2013-01-15 17:25:00,
2013-01-15 12:30:00,37.5,32.5,30.31,ESE,113,0.0,0.0,82,0.00,,,0.05,Wunderground v.1.15,2013-01-15 17:30:00,
2013-01-15 12:35:00,37.6,32.9,30.31,ESE,113,0.0,0.0,83,0.00,,,0.05,Wunderground v.1.15,2013-01-15 17:35:00,
2013-01-15 12:45:00,37.8,31.6,30.30,SE,140,0.0,0.0,78,0.00,,,0.05,Wunderground v.1.15,2013-01-15 17:45:00,
2013-01-15 12:55:00,38.2,31.9,30.28,NNE,15,0.0,1.0,78,0.00,,,0.05,Wunderground v.1.15,2013-01-15 17:55:00,
2013-01-15 13:00:00,38.2,32.3,30.28,NE,56,1.0,1.0,79,0.00,,,0.05,Wunderground v.1.15,2013-01-15 18:00:00,
2013-01-15 13:10:00,38.2,31.6,30.27,North,11,0.0,2.0,77,0.00,,,0.05,Wunderground v.1.15,2013-01-15 18:10:00,
2013-01-15 13:15:00,38.1,31.5,30.26,NNW,339,0.0,2.0,77,0.00,,,0.05,Wunderground v.1.15,2013-01-15 18:15:00,
2013-01-15 13:25:00,38.1,30.9,30.26,NE,51,1.0,1.0,75,0.00,,,0.05,Wunderground v.1.15,2013-01-15 18:25:00,
2013-01-15 13:30:00,38.2,31.6,30.25,NE,49,0.0,0.0,77,0.00,,,0.05,Wunderground v.1.15,2013-01-15 18:30:00,
2013-01-15 13:40:00,38.3,31.4,30.27,WNW,283,0.0,0.0,76,0.00,,,0.05,Wunderground v.1.15,2013-01-15 18:40:00,
2013-01-15 13:45:00,38.3,31.1,30.27,SW,218,0.0,1.0,75,0.00,,,0.05,Wunderground v.1.15,2013-01-15 18:45:00,
2013-01-15 13:55:00,38.4,30.8,30.26,SW,218,0.0,0.0,74,0.00,,,0.05,Wunderground v.1.15,2013-01-15 18:55:00,
2013-01-15 14:00:00,38.5,31.3,30.26,SW,219,0.0,0.0,75,0.00,,,0.05,Wunderground v.1.15,2013-01-15 19:00:00,
2013-01-15 14:10:00,38.6,31.4,30.25,SW,218,0.0,0.0,75,0.00,,,0.05,Wunderground v.1.15,2013-01-15 19:10:00,
2013-01-15 14:20:00,38.8,31.2,30.25,East,96,0.0,0.0,74,0.00,,,0.05,Wunderground v.1.15,2013-01-15 19:20:00,
2013-01-15 14:25:00,38.8,30.9,30.26,NNW,347,0.0,1.0,73,0.00,,,0.05,Wunderground v.1.15,2013-01-15 19:25:00,
2013-01-15 14:35:00,38.9,32.0,30.25,ESE,103,1.0,1.0,76,0.00,,,0.05,Wunderground v.1.15,2013-01-15 19:35:00,
2013-01-15 14:40:00,39.0,31.4,30.25,ESE,103,0.0,0.0,74,0.00,,,0.05,Wunderground v.1.15,2013-01-15 19:40:00,
2013-01-15 14:50:00,39.1,30.1,30.25,NNW,340,0.0,0.0,70,0.00,,,0.05,Wunderground v.1.15,2013-01-15 19:50:00,
2013-01-15 14:55:00,39.1,30.5,30.26,NNW,340,0.0,0.0,71,0.00,,,0.05,Wunderground v.1.15,2013-01-15 19:55:00,
2013-01-15 15:00:00,39.2,30.6,30.27,NNW,340,0.0,0.0,71,0.00,,,0.05,Wunderground v.1.15,2013-01-15 20:00:00,
2013-01-15 15:10:00,39.3,29.6,30.27,NNW,340,0.0,0.0,68,0.00,,,0.05,Wunderground v.1.15,2013-01-15 20:10:00,
2013-01-15 15:20:00,39.1,30.1,30.27,ENE,59,0.0,0.0,70,0.00,,,0.05,Wunderground v.1.15,2013-01-15 20:20:00,
2013-01-15 15:25:00,39.0,30.4,30.27,ENE,60,0.0,0.0,71,0.00,,,0.05,Wunderground v.1.15,2013-01-15 20:25:00,
2013-01-15 15:35:00,38.9,31.3,30.27,ENE,58,0.0,0.0,74,0.00,,,0.05,Wunderground v.1.15,2013-01-15 20:35:00,
2013-01-15 15:40:00,38.8,31.6,30.27,ENE,58,0.0,0.0,75,0.00,,,0.05,Wunderground v.1.15,2013-01-15 20:40:00,
2013-01-15 15:50:00,38.7,31.5,30.27,ENE,58,0.0,1.0,75,0.00,,,0.05,Wunderground v.1.15,2013-01-15 20:50:00,
2013-01-15 15:55:00,38.6,32.0,30.26,ENE,58,0.0,1.0,77,0.00,,,0.05,Wunderground v.1.15,2013-01-15 20:55:00,
2013-01-15 16:00:00,38.5,31.9,30.25,ENE,58,0.0,1.0,77,0.00,,,0.05,Wunderground v.1.15,2013-01-15 21:00:00,
2013-01-15 16:10:00,38.3,31.7,30.24,WNW,287,0.0,1.0,77,0.00,,,0.05,Wunderground v.1.15,2013-01-15 21:10:00,
2013-01-15 16:15:00,38.3,31.7,30.24,SE,127,1.0,2.0,77,0.00,,,0.05,Wunderground v.1.15,2013-01-15 21:15:00,
2013-01-15 16:20:00,38.2,31.3,30.24,WSW,250,1.0,1.0,76,0.00,,,0.05,Wunderground v.1.15,2013-01-15 21:20:00,
2013-01-15 16:30:00,38.1,31.8,30.25,SSE,155,1.0,1.0,78,0.00,,,0.05,Wunderground v.1.15,2013-01-15 21:30:00,
2013-01-15 16:35:00,38.1,31.8,30.25,SSE,152,1.0,1.0,78,0.00,,,0.05,Wunderground v.1.15,2013-01-15 21:35:00,
2013-01-15 16:45:00,37.9,32.3,30.25,SSE,152,0.0,0.0,80,0.00,,,0.05,Wunderground v.1.15,2013-01-15 21:45:00,
2013-01-15 16:50:00,37.8,31.9,30.25,SSE,152,0.0,0.0,79,0.00,,,0.05,Wunderground v.1.15,2013-01-15 21:50:00,
2013-01-15 17:00:00,37.7,31.8,30.26,SSE,153,0.0,0.0,79,0.00,,,0.05,Wunderground v.1.15,2013-01-15 22:00:00,
2013-01-15 17:05:00,37.7,31.8,30.26,SSE,158,0.0,-999.0,79,0.00,,,0.68,Wunderground v.1.15,2013-01-15 22:05:00,
2013-01-15 17:10:00,37.7,31.8,30.26,SSE,158,0.0,-999.0,79,0.00,,,0.68,Wunderground v.1.15,2013-01-15 22:10:00,
2013-01-15 17:15:00,37.4,32.1,30.25,N/A,-737280,0.0,-999.0,81,0.00,,,0.68,Wunderground v.1.15,2013-01-15 22:15:00,
2013-01-15 17:20:00,37.4,32.1,30.25,N/A,-737280,0.0,-999.0,81,0.00,,,0.68,Wunderground v.1.15,2013-01-15 22:20:00,
2013-01-15 17:25:00,37.4,32.1,30.25,N/A,-737280,0.0,-999.0,81,0.00,,,0.68,Wunderground v.1.15,2013-01-15 22:25:00,
2013-01-15 17:30:00,37.4,32.1,30.25,N/A,-737280,0.0,-999.0,81,0.00,,,0.68,Wunderground v.1.15,2013-01-15 22:30:00,
2013-01-15 17:35:00,37.4,32.1,30.25,N/A,-737280,0.0,-999.0,81,0.00,,,0.68,Wunderground v.1.15,2013-01-15 22:35:00,
2013-01-15 17:40:00,37.4,32.1,30.25,N/A,-737280,0.0,-999.0,81,0.00,,,0.68,Wunderground v.1.15,2013-01-15 22:40:00,
2013-01-15 17:45:00,36.9,31.6,30.26,SSE,158,0.0,-999.0,81,0.00,,,0.68,Wunderground v.1.15,2013-01-15 22:45:00,
2013-01-15 17:50:00,36.9,31.6,30.26,SSE,158,0.0,-999.0,81,0.00,,,0.68,Wunderground v.1.15,2013-01-15 22:50:00,
2013-01-15 17:55:00,36.9,31.6,30.26,SSE,158,0.0,-999.0,81,0.00,,,0.68,Wunderground v.1.15,2013-01-15 22:55:00,
2013-01-15 18:00:00,36.9,31.6,30.26,SSE,158,0.0,-999.0,81,0.00,,,0.68,Wunderground v.1.15,2013-01-15 23:00:00,
2013-01-15 18:05:00,36.9,31.6,30.26,SSE,158,0.0,-999.0,81,0.00,,,0.68,Wunderground v.1.15,2013-01-15 23:05:00,
2013-01-15 18:10:00,36.9,31.6,30.26,SSE,158,0.0,-999.0,81,0.00,,,0.68,Wunderground v.1.15,2013-01-15 23:10:00,
2013-01-15 18:15:00,36.6,31.9,30.27,SSE,158,0.0,-999.0,83,0.00,,,0.68,Wunderground v.1.15,2013-01-15 23:15:00,
2013-01-15 18:20:00,36.6,31.9,30.27,SSE,158,0.0,-999.0,83,0.00,,,0.68,Wunderground v.1.15,2013-01-15 23:20:00,
2013-01-15 18:25:00,36.6,31.9,30.27,SSE,158,0.0,-999.0,83,0.00,,,0.68,Wunderground v.1.15,2013-01-15 23:25:00,
2013-01-15 18:30:00,36.6,31.9,30.27,SSE,158,0.0,-999.0,83,0.00,,,0.68,Wunderground v.1.15,2013-01-15 23:30:00,
2013-01-15 18:35:00,36.6,31.9,30.27,SSE,158,0.0,-999.0,83,0.00,,,0.68,Wunderground v.1.15,2013-01-15 23:35:00,
2013-01-15 18:40:00,36.6,31.9,30.27,SSE,158,0.0,-999.0,83,0.00,,,0.68,Wunderground v.1.15,2013-01-15 23:40:00,
2013-01-15 18:45:00,36.3,31.9,30.27,NNE,23,0.0,-999.0,84,0.00,,,0.68,Wunderground v.1.15,2013-01-15 23:45:00,
2013-01-15 18:50:00,36.3,31.9,30.27,NNE,23,0.0,-999.0,84,0.00,,,0.68,Wunderground v.1.15,2013-01-15 23:50:00,
2013-01-15 18:55:00,36.3,31.9,30.27,NNE,23,0.0,-999.0,84,0.00,,,0.68,Wunderground v.1.15,2013-01-15 23:55:00,
2013-01-15 19:00:00,36.3,31.9,30.27,NNE,23,0.0,-999.0,84,0.00,,,0.68,Wunderground v.1.15,2013-01-16 00:00:00,
2013-01-15 19:05:00,36.3,31.9,30.27,NNE,23,0.0,-999.0,84,0.00,,,0.68,Wunderground v.1.15,2013-01-16 00:05:00,
2013-01-15 19:10:00,36.3,31.9,30.27,NNE,23,0.0,-999.0,84,0.00,,,0.68,Wunderground v.1.15,2013-01-16 00:10:00,
2013-01-15 19:15:00,35.4,32.5,30.26,N/A,-737280,0.0,-999.0,89,0.02,,,0.68,Wunderground v.1.15,2013-01-16 00:15:00,
2013-01-15 19:20:00,35.4,32.5,30.26,N/A,-737280,0.0,-999.0,89,0.02,,,0.68,Wunderground v.1.15,2013-01-16 00:20:00,
2013-01-15 19:25:00,35.4,32.5,30.26,N/A,-737280,0.0,-999.0,89,0.02,,,0.68,Wunderground v.1.15,2013-01-16 00:25:00,
2013-01-15 19:30:00,35.4,32.5,30.26,N/A,-737280,0.0,-999.0,89,0.02,,,0.68,Wunderground v.1.15,2013-01-16 00:30:00,
2013-01-15 19:35:00,35.4,32.5,30.26,N/A,-737280,0.0,-999.0,89,0.02,,,0.68,Wunderground v.1.15,2013-01-16 00:35:00,
2013-01-15 19:40:00,35.4,32.5,30.26,N/A,-737280,0.0,-999.0,89,0.02,,,0.68,Wunderground v.1.15,2013-01-16 00:40:00,
2013-01-15 19:45:00,34.7,32.9,30.27,N/A,-737280,0.0,-999.0,93,0.04,,,0.68,Wunderground v.1.15,2013-01-16 00:45:00,
2013-01-15 19:50:00,34.7,32.9,30.27,N/A,-737280,0.0,-999.0,93,0.04,,,0.68,Wunderground v.1.15,2013-01-16 00:50:00,
2013-01-15 19:55:00,34.7,32.9,30.27,N/A,-737280,0.0,-999.0,93,0.04,,,0.68,Wunderground v.1.15,2013-01-16 00:55:00,
2013-01-15 20:00:00,34.7,32.9,30.27,N/A,-737280,0.0,-999.0,93,0.04,,,0.68,Wunderground v.1.15,2013-01-16 01:00:00,
2013-01-15 20:05:00,34.7,32.9,30.27,N/A,-737280,0.0,-999.0,93,0.04,,,0.68,Wunderground v.1.15,2013-01-16 01:05:00,
2013-01-15 20:10:00,34.7,32.9,30.27,N/A,-737280,0.0,-999.0,93,0.04,,,0.68,Wunderground v.1.15,2013-01-16 01:10:00,
2013-01-15 20:15:00,34.4,32.6,30.25,N/A,-737280,0.0,-999.0,93,0.09,,,0.68,Wunderground v.1.15,2013-01-16 01:15:00,
2013-01-15 20:20:00,34.4,32.6,30.25,N/A,-737280,0.0,-999.0,93,0.09,,,0.68,Wunderground v.1.15,2013-01-16 01:20:00,
2013-01-15 20:25:00,34.4,32.6,30.25,N/A,-737280,0.0,-999.0,93,0.09,,,0.68,Wunderground v.1.15,2013-01-16 01:25:00,
2013-01-15 20:30:00,34.4,32.6,30.25,N/A,-737280,0.0,-999.0,93,0.09,,,0.68,Wunderground v.1.15,2013-01-16 01:30:00,
2013-01-15 20:35:00,34.4,32.6,30.25,N/A,-737280,0.0,-999.0,93,0.09,,,0.68,Wunderground v.1.15,2013-01-16 01:35:00,
2013-01-15 20:40:00,34.4,32.6,30.25,N/A,-737280,0.0,-999.0,93,0.09,,,0.68,Wunderground v.1.15,2013-01-16 01:40:00,
2013-01-15 20:45:00,34.1,32.6,30.23,NNW,338,0.0,-999.0,94,0.13,,,0.68,Wunderground v.1.15,2013-01-16 01:45:00,
2013-01-15 20:50:00,34.1,32.6,30.23,NNW,338,0.0,-999.0,94,0.13,,,0.68,Wunderground v.1.15,2013-01-16 01:50:00,
2013-01-15 20:55:00,34.1,32.6,30.23,NNW,338,0.0,-999.0,94,0.13,,,0.68,Wunderground v.1.15,2013-01-16 01:55:00,
2013-01-15 21:00:00,34.1,32.6,30.23,NNW,338,0.0,-999.0,94,0.13,,,0.68,Wunderground v.1.15,2013-01-16 02:00:00,
2013-01-15 21:05:00,34.1,32.6,30.23,NNW,338,0.0,-999.0,94,0.13,,,0.68,Wunderground v.1.15,2013-01-16 02:05:00,
2013-01-15 21:10:00,34.1,32.6,30.23,NNW,338,0.0,-999.0,94,0.13,,,0.68,Wunderground v.1.15,2013-01-16 02:10:00,
2013-01-15 21:15:00,33.9,32.6,30.23,North,0,0.0,-999.0,95,0.14,,,0.68,Wunderground v.1.15,2013-01-16 02:15:00,
2013-01-15 21:20:00,33.9,32.6,30.23,North,0,0.0,-999.0,95,0.14,,,0.68,Wunderground v.1.15,2013-01-16 02:20:00,
2013-01-15 21:25:00,33.9,32.6,30.23,North,0,0.0,-999.0,95,0.14,,,0.68,Wunderground v.1.15,2013-01-16 02:25:00,
2013-01-15 21:30:00,33.9,32.6,30.23,North,0,0.0,-999.0,95,0.14,,,0.68,Wunderground v.1.15,2013-01-16 02:30:00,
2013-01-15 21:35:00,33.9,32.6,30.23,North,0,0.0,-999.0,95,0.14,,,0.68,Wunderground v.1.15,2013-01-16 02:35:00,
2013-01-15 21:40:00,33.9,32.6,30.23,North,0,0.0,-999.0,95,0.14,,,0.68,Wunderground v.1.15,2013-01-16 02:40:00,
2013-01-15 21:45:00,33.7,32.4,30.21,North,0,0.0,-999.0,95,0.18,,,0.68,Wunderground v.1.15,2013-01-16 02:45:00,
2013-01-15 21:50:00,33.7,32.4,30.21,North,0,0.0,-999.0,95,0.18,,,0.68,Wunderground v.1.15,2013-01-16 02:50:00,
2013-01-15 21:55:00,33.7,32.4,30.21,North,0,0.0,-999.0,95,0.18,,,0.68,Wunderground v.1.15,2013-01-16 02:55:00,
2013-01-15 22:00:00,33.7,32.4,30.21,North,0,0.0,-999.0,95,0.18,,,0.68,Wunderground v.1.15,2013-01-16 03:00:00,
2013-01-15 22:05:00,33.7,32.4,30.21,North,0,0.0,-999.0,95,0.18,,,0.68,Wunderground v.1.15,2013-01-16 03:05:00,
2013-01-15 22:10:00,33.7,32.4,30.21,North,0,0.0,-999.0,95,0.18,,,0.68,Wunderground v.1.15,2013-01-16 03:10:00,
2013-01-15 22:15:00,33.6,32.3,30.20,North,0,0.0,-999.0,95,0.17,,,0.68,Wunderground v.1.15,2013-01-16 03:15:00,
2013-01-15 22:20:00,33.6,32.3,30.20,North,0,0.0,-999.0,95,0.17,,,0.68,Wunderground v.1.15,2013-01-16 03:20:00,
2013-01-15 22:25:00,33.6,32.3,30.20,North,0,0.0,-999.0,95,0.17,,,0.68,Wunderground v.1.15,2013-01-16 03:25:00,
2013-01-15 22:30:00,33.6,32.3,30.20,North,0,0.0,-999.0,95,0.17,,,0.68,Wunderground v.1.15,2013-01-16 03:30:00,
2013-01-15 22:35:00,33.6,32.3,30.20,North,0,0.0,-999.0,95,0.17,,,0.68,Wunderground v.1.15,2013-01-16 03:35:00,
2013-01-15 22:40:00,33.6,32.3,30.20,North,0,0.0,-999.0,95,0.17,,,0.68,Wunderground v.1.15,2013-01-16 03:40:00,
2013-01-15 22:45:00,33.4,32.1,30.19,SE,135,0.0,-999.0,95,0.15,,,0.68,Wunderground v.1.15,2013-01-16 03:45:00,
2013-01-15 22:50:00,33.4,32.1,30.19,SE,135,0.0,-999.0,95,0.15,,,0.68,Wunderground v.1.15,2013-01-16 03:50:00,
2013-01-15 22:55:00,33.4,32.1,30.19,SE,135,0.0,-999.0,95,0.15,,,0.68,Wunderground v.1.15,2013-01-16 03:55:00,
2013-01-15 23:00:00,33.4,32.1,30.19,SE,135,0.0,-999.0,95,0.15,,,0.68,Wunderground v.1.15,2013-01-16 04:00:00,
2013-01-15 23:05:00,33.4,32.1,30.19,SE,135,0.0,-999.0,95,0.15,,,0.68,Wunderground v.1.15,2013-01-16 04:05:00,
2013-01-15 23:10:00,33.4,32.1,30.19,SE,135,0.0,-999.0,95,0.15,,,0.68,Wunderground v.1.15,2013-01-16 04:10:00,
2013-01-15 23:15:00,33.0,31.7,30.18,NNE,23,0.0,-999.0,95,0.14,,,0.68,Wunderground v.1.15,2013-01-16 04:15:00,
2013-01-15 23:20:00,33.0,31.7,30.18,NNE,23,0.0,-999.0,95,0.14,,,0.68,Wunderground v.1.15,2013-01-16 04:20:00,
2013-01-15 23:25:00,33.0,31.7,30.18,NNE,23,0.0,-999.0,95,0.14,,,0.68,Wunderground v.1.15,2013-01-16 04:25:00,
2013-01-15 23:30:00,33.0,31.7,30.18,NNE,23,0.0,-999.0,95,0.14,,,0.68,Wunderground v.1.15,2013-01-16 04:30:00,
2013-01-15 23:35:00,33.0,31.7,30.18,NNE,23,0.0,-999.0,95,0.14,,,0.68,Wunderground v.1.15,2013-01-16 04:35:00,
2013-01-15 23:40:00,33.0,31.7,30.18,NNE,23,0.0,-999.0,95,0.14,,,0.68,Wunderground v.1.15,2013-01-16 04:40:00,
2013-01-15 23:45:00,32.9,31.4,30.16,SSE,158,0.0,-999.0,94,0.13,,,0.68,Wunderground v.1.15,2013-01-16 04:45:00,
2013-01-15 23:50:00,32.9,31.4,30.16,SSE,158,0.0,-999.0,94,0.13,,,0.68,Wunderground v.1.15,2013-01-16 04:50:00,
2013-01-15 23:55:00,32.9,31.4,30.16,SSE,158,0.0,-999.0,94,0.13,,,0.68,Wunderground v.1.15,2013-01-16 04:55:00,